Year,Month,Day,Hour,Minute,Value (Times are PST for temperature in C)
2014,08,18,00,00,16.10
2014,08,18,00,01,16.10
2014,08,18,00,02,16.10
2014,08,18,00,03,16.00
2014,08,18,00,04,15.90
2014,08,18,00,05,15.90
2014,08,18,00,06,15.90
2014,08,18,00,07,15.90
2014,08,18,00,08,15.90
2014,08,18,00,09,15.90
2014,08,18,00,10,15.90
2014,08,18,00,11,15.90
2014,08,18,00,12,15.90
2014,08,18,00,13,15.90
2014,08,18,00,14,15.90
2014,08,18,00,15,15.90
2014,08,18,00,16,15.80
2014,08,18,00,17,15.80
2014,08,18,00,18,15.80
2014,08,18,00,19,15.80
2014,08,18,00,20,15.80
2014,08,18,00,21,15.80
2014,08,18,00,22,15.80
2014,08,18,00,23,15.80
2014,08,18,00,24,15.80
2014,08,18,00,25,15.80
2014,08,18,00,26,15.80
2014,08,18,00,27,15.80
2014,08,18,00,28,15.80
2014,08,18,00,29,15.80
2014,08,18,00,30,15.80
2014,08,18,00,31,15.80
2014,08,18,00,32,15.80
2014,08,18,00,33,15.80
2014,08,18,00,34,15.80
2014,08,18,00,35,15.80
2014,08,18,00,36,15.80
2014,08,18,00,37,15.80
2014,08,18,00,38,15.80
2014,08,18,00,39,15.80
2014,08,18,00,40,15.80
2014,08,18,00,41,15.80
2014,08,18,00,42,15.80
2014,08,18,00,43,15.80
2014,08,18,00,44,15.80
2014,08,18,00,45,15.80
2014,08,18,00,46,15.80
2014,08,18,00,47,15.80
2014,08,18,00,48,15.70
2014,08,18,00,49,15.70
2014,08,18,00,50,15.70
2014,08,18,00,51,15.70
2014,08,18,00,52,15.70
2014,08,18,00,53,15.70
2014,08,18,00,54,15.70
2014,08,18,00,55,15.70
2014,08,18,00,56,15.60
2014,08,18,00,57,15.60
2014,08,18,00,58,15.60
2014,08,18,00,59,15.60
2014,08,18,01,00,15.60
2014,08,18,01,01,15.60
2014,08,18,01,02,15.60
2014,08,18,01,03,15.60
2014,08,18,01,04,15.60
2014,08,18,01,05,15.60
2014,08,18,01,06,15.60
2014,08,18,01,07,15.60
2014,08,18,01,08,15.60
2014,08,18,01,09,15.60
2014,08,18,01,10,15.50
2014,08,18,01,11,15.50
2014,08,18,01,12,15.50
2014,08,18,01,13,15.50
2014,08,18,01,14,15.50
2014,08,18,01,15,15.50
2014,08,18,01,16,15.50
2014,08,18,01,17,15.50
2014,08,18,01,18,15.50
2014,08,18,01,19,15.50
2014,08,18,01,20,15.50
2014,08,18,01,21,15.50
2014,08,18,01,22,15.50
2014,08,18,01,23,15.40
2014,08,18,01,24,15.40
2014,08,18,01,25,15.40
2014,08,18,01,26,15.40
2014,08,18,01,27,15.40
2014,08,18,01,28,15.40
2014,08,18,01,29,15.40
2014,08,18,01,30,15.40
2014,08,18,01,31,15.40
2014,08,18,01,32,15.40
2014,08,18,01,33,15.40
2014,08,18,01,34,15.40
2014,08,18,01,35,15.40
2014,08,18,01,36,15.40
2014,08,18,01,37,15.40
2014,08,18,01,38,15.40
2014,08,18,01,39,15.40
2014,08,18,01,40,15.40
2014,08,18,01,41,15.40
2014,08,18,01,42,15.40
2014,08,18,01,43,15.40
2014,08,18,01,44,15.40
2014,08,18,01,45,15.40
2014,08,18,01,46,15.40
2014,08,18,01,47,15.40
2014,08,18,01,48,15.30
2014,08,18,01,49,15.30
2014,08,18,01,50,15.30
2014,08,18,01,51,15.30
2014,08,18,01,52,15.30
2014,08,18,01,53,15.30
2014,08,18,01,54,15.30
2014,08,18,01,55,15.30
2014,08,18,01,56,15.30
2014,08,18,01,57,15.30
2014,08,18,01,58,15.30
2014,08,18,01,59,15.30
2014,08,18,02,00,15.30
2014,08,18,02,01,15.30
2014,08,18,02,02,15.30
2014,08,18,02,03,15.30
2014,08,18,02,04,15.30
2014,08,18,02,05,15.30
2014,08,18,02,06,15.20
2014,08,18,02,07,15.20
2014,08,18,02,08,15.20
2014,08,18,02,09,15.20
2014,08,18,02,10,15.20
2014,08,18,02,11,15.20
2014,08,18,02,12,15.20
2014,08,18,02,13,15.20
2014,08,18,02,14,15.20
2014,08,18,02,15,15.10
2014,08,18,02,16,15.10
2014,08,18,02,17,15.10
2014,08,18,02,18,15.10
2014,08,18,02,19,15.10
2014,08,18,02,20,15.10
2014,08,18,02,21,15.10
2014,08,18,02,22,15.10
2014,08,18,02,23,15.10
2014,08,18,02,24,15.10
2014,08,18,02,25,15.10
2014,08,18,02,26,15.20
2014,08,18,02,27,15.20
2014,08,18,02,28,15.20
2014,08,18,02,29,15.20
2014,08,18,02,30,15.20
2014,08,18,02,31,15.20
2014,08,18,02,32,15.20
2014,08,18,02,33,15.20
2014,08,18,02,34,15.20
2014,08,18,02,35,15.20
2014,08,18,02,36,15.20
2014,08,18,02,37,15.10
2014,08,18,02,38,15.10
2014,08,18,02,39,15.10
2014,08,18,02,40,15.10
2014,08,18,02,41,15.10
2014,08,18,02,42,15.10
2014,08,18,02,43,15.10
2014,08,18,02,44,15.10
2014,08,18,02,45,15.00
2014,08,18,02,46,15.00
2014,08,18,02,47,15.00
2014,08,18,02,48,15.00
2014,08,18,02,49,15.00
2014,08,18,02,50,15.00
2014,08,18,02,51,15.00
2014,08,18,02,52,15.00
2014,08,18,02,53,14.90
2014,08,18,02,54,14.90
2014,08,18,02,55,14.90
2014,08,18,02,56,14.90
2014,08,18,02,57,14.90
2014,08,18,02,58,14.90
2014,08,18,02,59,14.90
2014,08,18,03,00,14.90
2014,08,18,03,01,14.90
2014,08,18,03,02,14.90
2014,08,18,03,03,14.90
2014,08,18,03,04,14.90
2014,08,18,03,05,14.90
2014,08,18,03,06,14.80
2014,08,18,03,07,14.80
2014,08,18,03,08,14.80
2014,08,18,03,09,14.80
2014,08,18,03,10,14.80
2014,08,18,03,11,14.80
2014,08,18,03,12,14.80
2014,08,18,03,13,14.80
2014,08,18,03,14,14.80
2014,08,18,03,15,14.80
2014,08,18,03,16,14.80
2014,08,18,03,17,14.80
2014,08,18,03,18,14.80
2014,08,18,03,19,14.80
2014,08,18,03,20,14.80
2014,08,18,03,21,14.80
2014,08,18,03,22,14.80
2014,08,18,03,23,14.80
2014,08,18,03,24,14.80
2014,08,18,03,25,14.80
2014,08,18,03,26,14.80
2014,08,18,03,27,14.80
2014,08,18,03,28,14.80
2014,08,18,03,29,14.80
2014,08,18,03,30,14.80
2014,08,18,03,31,14.80
2014,08,18,03,32,14.80
2014,08,18,03,33,14.70
2014,08,18,03,34,14.70
2014,08,18,03,35,14.70
2014,08,18,03,36,14.70
2014,08,18,03,37,14.70
2014,08,18,03,38,14.70
2014,08,18,03,39,14.70
2014,08,18,03,40,14.60
2014,08,18,03,41,14.60
2014,08,18,03,42,14.60
2014,08,18,03,43,14.60
2014,08,18,03,44,14.60
2014,08,18,03,45,14.60
2014,08,18,03,46,14.60
2014,08,18,03,47,14.60
2014,08,18,03,48,14.60
2014,08,18,03,49,14.60
2014,08,18,03,50,14.60
2014,08,18,03,51,14.60
2014,08,18,03,52,14.60
2014,08,18,03,53,14.60
2014,08,18,03,54,14.60
2014,08,18,03,55,14.60
2014,08,18,03,56,14.60
2014,08,18,03,57,14.60
2014,08,18,03,58,14.50
2014,08,18,03,59,14.60
2014,08,18,04,00,14.60
2014,08,18,04,01,14.60
2014,08,18,04,02,14.60
2014,08,18,04,03,14.60
2014,08,18,04,04,14.60
2014,08,18,04,05,14.60
2014,08,18,04,06,14.60
2014,08,18,04,07,14.60
2014,08,18,04,08,14.60
2014,08,18,04,09,14.50
2014,08,18,04,10,14.50
2014,08,18,04,11,14.50
2014,08,18,04,12,14.50
2014,08,18,04,13,14.50
2014,08,18,04,14,14.50
2014,08,18,04,15,14.50
2014,08,18,04,16,14.50
2014,08,18,04,17,14.50
2014,08,18,04,18,14.50
2014,08,18,04,19,14.50
2014,08,18,04,20,14.50
2014,08,18,04,21,14.50
2014,08,18,04,22,14.50
2014,08,18,04,23,14.50
2014,08,18,04,24,14.50
2014,08,18,04,25,14.50
2014,08,18,04,26,14.50
2014,08,18,04,27,14.50
2014,08,18,04,28,14.50
2014,08,18,04,29,14.50
2014,08,18,04,30,14.40
2014,08,18,04,31,14.40
2014,08,18,04,32,14.40
2014,08,18,04,33,14.40
2014,08,18,04,34,14.40
2014,08,18,04,35,14.40
2014,08,18,04,36,14.40
2014,08,18,04,37,14.40
2014,08,18,04,38,14.40
2014,08,18,04,39,14.30
2014,08,18,04,40,14.30
2014,08,18,04,41,14.30
2014,08,18,04,42,14.30
2014,08,18,04,43,14.30
2014,08,18,04,44,14.30
2014,08,18,04,45,14.40
2014,08,18,04,46,14.40
2014,08,18,04,47,14.40
2014,08,18,04,48,14.40
2014,08,18,04,49,14.40
2014,08,18,04,50,14.40
2014,08,18,04,51,14.40
2014,08,18,04,52,14.30
2014,08,18,04,53,14.30
2014,08,18,04,54,14.30
2014,08,18,04,55,14.30
2014,08,18,04,56,14.30
2014,08,18,04,57,14.30
2014,08,18,04,58,14.30
2014,08,18,04,59,14.30
2014,08,18,05,00,14.30
2014,08,18,05,01,14.30
2014,08,18,05,02,14.30
2014,08,18,05,03,14.30
2014,08,18,05,04,14.30
2014,08,18,05,05,14.30
2014,08,18,05,06,14.40
2014,08,18,05,07,14.40
2014,08,18,05,08,14.40
2014,08,18,05,09,14.40
2014,08,18,05,10,14.40
2014,08,18,05,11,14.30
2014,08,18,05,12,14.30
2014,08,18,05,13,14.30
2014,08,18,05,14,14.30
2014,08,18,05,15,14.30
2014,08,18,05,16,14.30
2014,08,18,05,17,14.20
2014,08,18,05,18,14.20
2014,08,18,05,19,14.20
2014,08,18,05,20,14.20
2014,08,18,05,21,14.20
2014,08,18,05,22,14.20
2014,08,18,05,23,14.20
2014,08,18,05,24,14.20
2014,08,18,05,25,14.20
2014,08,18,05,26,14.20
2014,08,18,05,27,14.20
2014,08,18,05,28,14.20
2014,08,18,05,29,14.20
2014,08,18,05,30,14.20
2014,08,18,05,31,14.20
2014,08,18,05,32,14.20
2014,08,18,05,33,14.10
2014,08,18,05,34,14.10
2014,08,18,05,35,14.10
2014,08,18,05,36,14.10
2014,08,18,05,37,14.10
2014,08,18,05,38,14.10
2014,08,18,05,39,14.00
2014,08,18,05,40,14.00
2014,08,18,05,41,14.00
2014,08,18,05,42,14.00
2014,08,18,05,43,14.00
2014,08,18,05,44,14.00
2014,08,18,05,45,14.00
2014,08,18,05,46,14.00
2014,08,18,05,47,14.00
2014,08,18,05,48,14.00
2014,08,18,05,49,14.00
2014,08,18,05,50,14.00
2014,08,18,05,51,14.00
2014,08,18,05,52,14.10
2014,08,18,05,53,14.10
2014,08,18,05,54,14.10
2014,08,18,05,55,14.10
2014,08,18,05,56,14.10
2014,08,18,05,57,14.10
2014,08,18,05,58,14.00
2014,08,18,05,59,14.00
2014,08,18,06,00,14.00
2014,08,18,06,01,14.00
2014,08,18,06,02,14.00
2014,08,18,06,03,14.00
2014,08,18,06,04,14.00
2014,08,18,06,05,13.90
2014,08,18,06,06,13.90
2014,08,18,06,07,13.90
2014,08,18,06,08,13.90
2014,08,18,06,09,13.90
2014,08,18,06,10,13.90
2014,08,18,06,11,13.90
2014,08,18,06,12,13.90
2014,08,18,06,13,13.90
2014,08,18,06,14,13.90
2014,08,18,06,15,13.90
2014,08,18,06,16,13.90
2014,08,18,06,17,13.90
2014,08,18,06,18,13.90
2014,08,18,06,19,13.90
2014,08,18,06,20,13.90
2014,08,18,06,21,13.90
2014,08,18,06,22,13.90
2014,08,18,06,23,13.90
2014,08,18,06,24,13.90
2014,08,18,06,25,13.90
2014,08,18,06,26,13.90
2014,08,18,06,27,13.90
2014,08,18,06,28,13.90
2014,08,18,06,29,13.90
2014,08,18,06,30,13.80
2014,08,18,06,31,13.80
2014,08,18,06,32,13.80
2014,08,18,06,33,13.80
2014,08,18,06,34,13.80
2014,08,18,06,35,13.80
2014,08,18,06,36,13.80
2014,08,18,06,37,13.80
2014,08,18,06,38,13.80
2014,08,18,06,39,13.70
2014,08,18,06,40,13.80
2014,08,18,06,41,13.80
2014,08,18,06,42,13.80
2014,08,18,06,43,13.80
2014,08,18,06,44,13.80
2014,08,18,06,45,13.80
2014,08,18,06,46,13.80
2014,08,18,06,47,13.80
2014,08,18,06,48,13.80
2014,08,18,06,49,13.80
2014,08,18,06,50,13.80
2014,08,18,06,51,13.80
2014,08,18,06,52,13.80
2014,08,18,06,53,13.80
2014,08,18,06,54,13.80
2014,08,18,06,55,13.80
2014,08,18,06,56,13.80
2014,08,18,06,57,13.80
2014,08,18,06,58,13.90
2014,08,18,06,59,13.90
2014,08,18,07,00,13.90
2014,08,18,07,01,13.90
2014,08,18,07,02,13.90
2014,08,18,07,03,14.00
2014,08,18,07,04,14.00
2014,08,18,07,05,14.00
2014,08,18,07,06,14.00
2014,08,18,07,07,14.10
2014,08,18,07,08,14.10
2014,08,18,07,09,14.10
2014,08,18,07,10,14.10
2014,08,18,07,11,14.10
2014,08,18,07,12,14.10
2014,08,18,07,13,14.10
2014,08,18,07,14,14.10
2014,08,18,07,15,14.10
2014,08,18,07,16,14.10
2014,08,18,07,17,14.10
2014,08,18,07,18,14.20
2014,08,18,07,19,14.20
2014,08,18,07,20,14.20
2014,08,18,07,21,14.20
2014,08,18,07,22,14.30
2014,08,18,07,23,14.40
2014,08,18,07,24,14.40
2014,08,18,07,25,14.40
2014,08,18,07,26,14.50
2014,08,18,07,27,14.50
2014,08,18,07,28,14.60
2014,08,18,07,29,14.60
2014,08,18,07,30,14.60
2014,08,18,07,31,14.70
2014,08,18,07,32,14.80
2014,08,18,07,33,14.80
2014,08,18,07,34,14.90
2014,08,18,07,35,14.90
2014,08,18,07,36,15.00
2014,08,18,07,37,15.00
2014,08,18,07,38,15.00
2014,08,18,07,39,15.00
2014,08,18,07,40,15.00
2014,08,18,07,41,15.10
2014,08,18,07,42,15.10
2014,08,18,07,43,15.10
2014,08,18,07,44,15.20
2014,08,18,07,45,15.20
2014,08,18,07,46,15.20
2014,08,18,07,47,15.30
2014,08,18,07,48,15.30
2014,08,18,07,49,15.30
2014,08,18,07,50,15.30
2014,08,18,07,51,15.30
2014,08,18,07,52,15.30
2014,08,18,07,53,15.30
2014,08,18,07,54,15.30
2014,08,18,07,55,15.40
2014,08,18,07,56,15.40
2014,08,18,07,57,15.40
2014,08,18,07,58,15.40
2014,08,18,07,59,15.40
2014,08,18,08,00,15.40
2014,08,18,08,01,15.40
2014,08,18,08,02,15.40
2014,08,18,08,03,15.40
2014,08,18,08,04,15.40
2014,08,18,08,05,15.50
2014,08,18,08,06,15.50
2014,08,18,08,07,15.50
2014,08,18,08,08,15.50
2014,08,18,08,09,15.60
2014,08,18,08,10,15.60
2014,08,18,08,11,15.70
2014,08,18,08,12,15.70
2014,08,18,08,13,15.80
2014,08,18,08,14,15.80
2014,08,18,08,15,15.80
2014,08,18,08,16,15.90
2014,08,18,08,17,15.90
2014,08,18,08,18,16.10
2014,08,18,08,19,16.10
2014,08,18,08,20,16.10
2014,08,18,08,21,16.20
2014,08,18,08,22,16.20
2014,08,18,08,23,16.30
2014,08,18,08,24,16.30
2014,08,18,08,25,16.40
2014,08,18,08,26,16.40
2014,08,18,08,27,16.40
2014,08,18,08,28,16.50
2014,08,18,08,29,16.60
2014,08,18,08,30,16.70
2014,08,18,08,31,16.70
2014,08,18,08,32,16.70
2014,08,18,08,33,16.70
2014,08,18,08,34,16.70
2014,08,18,08,35,16.80
2014,08,18,08,36,16.80
2014,08,18,08,37,16.80
2014,08,18,08,38,16.90
2014,08,18,08,39,16.90
2014,08,18,08,40,16.90
2014,08,18,08,41,17.00
2014,08,18,08,42,17.00
2014,08,18,08,43,17.00
2014,08,18,08,44,17.00
2014,08,18,08,45,17.10
2014,08,18,08,46,17.10
2014,08,18,08,47,17.20
2014,08,18,08,48,17.20
2014,08,18,08,49,17.30
2014,08,18,08,50,17.30
2014,08,18,08,51,17.30
2014,08,18,08,52,17.40
2014,08,18,08,53,17.40
2014,08,18,08,54,17.50
2014,08,18,08,55,17.50
2014,08,18,08,56,17.50
2014,08,18,08,57,17.50
2014,08,18,08,58,17.60
2014,08,18,08,59,17.60
2014,08,18,09,00,17.60
2014,08,18,09,01,17.60
2014,08,18,09,02,17.70
2014,08,18,09,03,17.70
2014,08,18,09,04,17.70
2014,08,18,09,05,17.70
2014,08,18,09,06,17.70
2014,08,18,09,07,17.70
2014,08,18,09,08,17.80
2014,08,18,09,09,17.80
2014,08,18,09,10,17.80
2014,08,18,09,11,17.80
2014,08,18,09,12,17.80
2014,08,18,09,13,17.90
2014,08,18,09,14,17.90
2014,08,18,09,15,17.90
2014,08,18,09,16,17.90
2014,08,18,09,17,17.90
2014,08,18,09,18,17.90
2014,08,18,09,19,18.00
2014,08,18,09,20,18.10
2014,08,18,09,21,18.10
2014,08,18,09,22,18.10
2014,08,18,09,23,18.20
2014,08,18,09,24,18.20
2014,08,18,09,25,18.20
2014,08,18,09,26,18.20
2014,08,18,09,27,18.30
2014,08,18,09,28,18.30
2014,08,18,09,29,18.30
2014,08,18,09,30,18.40
2014,08,18,09,31,18.50
2014,08,18,09,32,18.50
2014,08,18,09,33,18.60
2014,08,18,09,34,18.60
2014,08,18,09,35,18.60
2014,08,18,09,36,18.70
2014,08,18,09,37,18.70
2014,08,18,09,38,18.70
2014,08,18,09,39,18.80
2014,08,18,09,40,18.80
2014,08,18,09,41,18.80
2014,08,18,09,42,18.80
2014,08,18,09,43,18.80
2014,08,18,09,44,18.80
2014,08,18,09,45,18.90
2014,08,18,09,46,18.90
2014,08,18,09,47,18.90
2014,08,18,09,48,18.90
2014,08,18,09,49,18.90
2014,08,18,09,50,18.90
2014,08,18,09,51,19.00
2014,08,18,09,52,19.10
2014,08,18,09,53,19.10
2014,08,18,09,54,19.10
2014,08,18,09,55,19.10
2014,08,18,09,56,19.20
2014,08,18,09,57,19.20
2014,08,18,09,58,19.20
2014,08,18,09,59,19.20
2014,08,18,10,00,19.20
2014,08,18,10,01,19.20
2014,08,18,10,02,19.30
2014,08,18,10,03,19.40
2014,08,18,10,04,19.50
2014,08,18,10,05,19.50
2014,08,18,10,06,19.50
2014,08,18,10,07,19.60
2014,08,18,10,08,19.60
2014,08,18,10,09,19.60
2014,08,18,10,10,19.60
2014,08,18,10,11,19.70
2014,08,18,10,12,19.80
2014,08,18,10,13,19.80
2014,08,18,10,14,19.80
2014,08,18,10,15,19.90
2014,08,18,10,16,19.90
2014,08,18,10,17,19.90
2014,08,18,10,18,19.90
2014,08,18,10,19,19.90
2014,08,18,10,20,19.90
2014,08,18,10,21,20.10
2014,08,18,10,22,20.10
2014,08,18,10,23,20.10
2014,08,18,10,24,20.20
2014,08,18,10,25,20.20
2014,08,18,10,26,20.20
2014,08,18,10,27,20.30
2014,08,18,10,28,20.30
2014,08,18,10,29,20.40
2014,08,18,10,30,20.40
2014,08,18,10,31,20.50
2014,08,18,10,32,20.60
2014,08,18,10,33,20.70
2014,08,18,10,34,20.70
2014,08,18,10,35,20.70
2014,08,18,10,36,20.70
2014,08,18,10,37,20.70
2014,08,18,10,38,20.60
2014,08,18,10,39,20.60
2014,08,18,10,40,20.60
2014,08,18,10,41,20.70
2014,08,18,10,42,20.70
2014,08,18,10,43,20.80
2014,08,18,10,44,20.80
2014,08,18,10,45,20.80
2014,08,18,10,46,20.80
2014,08,18,10,47,20.80
2014,08,18,10,48,20.70
2014,08,18,10,49,20.70
2014,08,18,10,50,20.70
2014,08,18,10,51,20.70
2014,08,18,10,52,20.70
2014,08,18,10,53,20.60
2014,08,18,10,54,20.60
2014,08,18,10,55,20.60
2014,08,18,10,56,20.70
2014,08,18,10,57,20.80
2014,08,18,10,58,21.00
2014,08,18,10,59,21.00
2014,08,18,11,00,21.00
2014,08,18,11,01,20.90
2014,08,18,11,02,20.80
2014,08,18,11,03,20.70
2014,08,18,11,04,20.70
2014,08,18,11,05,20.60
2014,08,18,11,06,20.60
2014,08,18,11,07,20.60
2014,08,18,11,08,20.50
2014,08,18,11,09,20.50
2014,08,18,11,10,20.40
2014,08,18,11,11,20.30
2014,08,18,11,12,20.30
2014,08,18,11,13,20.30
2014,08,18,11,14,20.30
2014,08,18,11,15,20.20
2014,08,18,11,16,20.20
2014,08,18,11,17,20.20
2014,08,18,11,18,20.20
2014,08,18,11,19,20.20
2014,08,18,11,20,20.20
2014,08,18,11,21,20.20
2014,08,18,11,22,20.20
2014,08,18,11,23,20.20
2014,08,18,11,24,20.20
2014,08,18,11,25,20.20
2014,08,18,11,26,20.20
2014,08,18,11,27,20.20
2014,08,18,11,28,20.10
2014,08,18,11,29,20.10
2014,08,18,11,30,20.10
2014,08,18,11,31,20.20
2014,08,18,11,32,20.10
2014,08,18,11,33,20.20
2014,08,18,11,34,20.20
2014,08,18,11,35,20.20
2014,08,18,11,36,20.20
2014,08,18,11,37,20.20
2014,08,18,11,38,20.20
2014,08,18,11,39,20.40
2014,08,18,11,40,20.50
2014,08,18,11,41,20.50
2014,08,18,11,42,20.60
2014,08,18,11,43,20.80
2014,08,18,11,44,20.90
2014,08,18,11,45,20.90
2014,08,18,11,46,20.90
2014,08,18,11,47,20.90
2014,08,18,11,48,20.90
2014,08,18,11,49,20.90
2014,08,18,11,50,20.90
2014,08,18,11,51,20.80
2014,08,18,11,52,20.80
2014,08,18,11,53,20.80
2014,08,18,11,54,20.70
2014,08,18,11,55,20.70
2014,08,18,11,56,20.70
2014,08,18,11,57,20.60
2014,08,18,11,58,20.50
2014,08,18,11,59,20.50
2014,08,18,12,00,20.50
2014,08,18,12,01,20.50
2014,08,18,12,02,20.50
2014,08,18,12,03,20.60
2014,08,18,12,04,20.60
2014,08,18,12,05,20.60
2014,08,18,12,06,20.60
2014,08,18,12,07,20.60
2014,08,18,12,08,20.60
2014,08,18,12,09,20.60
2014,08,18,12,10,20.70
2014,08,18,12,11,20.80
2014,08,18,12,12,21.00
2014,08,18,12,13,21.10
2014,08,18,12,14,21.30
2014,08,18,12,15,21.30
2014,08,18,12,16,21.30
2014,08,18,12,17,21.30
2014,08,18,12,18,21.40
2014,08,18,12,19,21.50
2014,08,18,12,20,21.60
2014,08,18,12,21,21.60
2014,08,18,12,22,21.70
2014,08,18,12,23,21.80
2014,08,18,12,24,21.90
2014,08,18,12,25,22.00
2014,08,18,12,26,22.00
2014,08,18,12,27,22.20
2014,08,18,12,28,22.30
2014,08,18,12,29,22.30
2014,08,18,12,30,22.40
2014,08,18,12,31,22.40
2014,08,18,12,32,22.50
2014,08,18,12,33,22.60
2014,08,18,12,34,22.60
2014,08,18,12,35,22.80
2014,08,18,12,36,22.90
2014,08,18,12,37,23.00
2014,08,18,12,38,23.10
2014,08,18,12,39,23.10
2014,08,18,12,40,23.20
2014,08,18,12,41,23.20
2014,08,18,12,42,23.20
2014,08,18,12,43,23.20
2014,08,18,12,44,23.30
2014,08,18,12,45,23.40
2014,08,18,12,46,23.50
2014,08,18,12,47,23.60
2014,08,18,12,48,23.70
2014,08,18,12,49,23.70
2014,08,18,12,50,23.60
2014,08,18,12,51,23.50
2014,08,18,12,52,23.50
2014,08,18,12,53,23.60
2014,08,18,12,54,23.70
2014,08,18,12,55,23.60
2014,08,18,12,56,23.40
2014,08,18,12,57,23.50
2014,08,18,12,58,23.70
2014,08,18,12,59,23.80
2014,08,18,13,00,23.80
2014,08,18,13,01,23.70
2014,08,18,13,02,23.70
2014,08,18,13,03,23.70
2014,08,18,13,04,23.70
2014,08,18,13,05,23.70
2014,08,18,13,06,23.70
2014,08,18,13,07,23.70
2014,08,18,13,08,23.70
2014,08,18,13,09,23.70
2014,08,18,13,10,23.70
2014,08,18,13,11,23.60
2014,08,18,13,12,23.50
2014,08,18,13,13,23.40
2014,08,18,13,14,23.50
2014,08,18,13,15,23.60
2014,08,18,13,16,23.70
2014,08,18,13,17,23.80
2014,08,18,13,18,23.80
2014,08,18,13,19,23.70
2014,08,18,13,20,23.60
2014,08,18,13,21,23.50
2014,08,18,13,22,23.40
2014,08,18,13,23,23.40
2014,08,18,13,24,23.60
2014,08,18,13,25,23.70
2014,08,18,13,26,23.70
2014,08,18,13,27,23.70
2014,08,18,13,28,23.70
2014,08,18,13,29,23.60
2014,08,18,13,30,23.60
2014,08,18,13,31,23.60
2014,08,18,13,32,23.60
2014,08,18,13,33,23.60
2014,08,18,13,34,23.60
2014,08,18,13,35,23.60
2014,08,18,13,36,23.60
2014,08,18,13,37,23.60
2014,08,18,13,38,23.60
2014,08,18,13,39,23.50
2014,08,18,13,40,23.40
2014,08,18,13,41,23.30
2014,08,18,13,42,23.30
2014,08,18,13,43,23.30
2014,08,18,13,44,23.30
2014,08,18,13,45,23.40
2014,08,18,13,46,23.40
2014,08,18,13,47,23.50
2014,08,18,13,48,23.60
2014,08,18,13,49,23.70
2014,08,18,13,50,23.80
2014,08,18,13,51,24.00
2014,08,18,13,52,24.00
2014,08,18,13,53,23.80
2014,08,18,13,54,23.70
2014,08,18,13,55,23.50
2014,08,18,13,56,23.30
2014,08,18,13,57,23.30
2014,08,18,13,58,23.30
2014,08,18,13,59,23.30
2014,08,18,14,00,23.20
2014,08,18,14,01,23.10
2014,08,18,14,02,23.10
2014,08,18,14,03,23.10
2014,08,18,14,04,23.10
2014,08,18,14,05,23.10
2014,08,18,14,06,23.10
2014,08,18,14,07,23.30
2014,08,18,14,08,23.40
2014,08,18,14,09,23.40
2014,08,18,14,10,23.50
2014,08,18,14,11,23.50
2014,08,18,14,12,23.40
2014,08,18,14,13,23.40
2014,08,18,14,14,23.30
2014,08,18,14,15,23.20
2014,08,18,14,16,23.10
2014,08,18,14,17,23.10
2014,08,18,14,18,23.10
2014,08,18,14,19,23.20
2014,08,18,14,20,23.20
2014,08,18,14,21,23.20
2014,08,18,14,22,23.20
2014,08,18,14,23,23.20
2014,08,18,14,24,23.30
2014,08,18,14,25,23.30
2014,08,18,14,26,23.30
2014,08,18,14,27,23.30
2014,08,18,14,28,23.40
2014,08,18,14,29,23.60
2014,08,18,14,30,23.60
2014,08,18,14,31,23.60
2014,08,18,14,32,23.70
2014,08,18,14,33,23.70
2014,08,18,14,34,23.70
2014,08,18,14,35,23.70
2014,08,18,14,36,23.70
2014,08,18,14,37,23.80
2014,08,18,14,38,23.70
2014,08,18,14,39,23.80
2014,08,18,14,40,23.90
2014,08,18,14,41,24.00
2014,08,18,14,42,24.10
2014,08,18,14,43,24.20
2014,08,18,14,44,24.40
2014,08,18,14,45,24.50
2014,08,18,14,46,24.60
2014,08,18,14,47,24.70
2014,08,18,14,48,24.80
2014,08,18,14,49,24.90
2014,08,18,14,50,25.00
2014,08,18,14,51,25.10
2014,08,18,14,52,25.20
2014,08,18,14,53,25.30
2014,08,18,14,54,25.30
2014,08,18,14,55,25.20
2014,08,18,14,56,25.00
2014,08,18,14,57,24.80
2014,08,18,14,58,24.20
2014,08,18,14,59,23.60
2014,08,18,15,00,23.10
2014,08,18,15,01,22.90
2014,08,18,15,02,22.80
2014,08,18,15,03,22.70
2014,08,18,15,04,22.50
2014,08,18,15,05,22.30
2014,08,18,15,06,22.20
2014,08,18,15,07,22.00
2014,08,18,15,08,21.80
2014,08,18,15,09,21.60
2014,08,18,15,10,21.40
2014,08,18,15,11,21.30
2014,08,18,15,12,21.30
2014,08,18,15,13,21.30
2014,08,18,15,14,21.20
2014,08,18,15,15,21.20
2014,08,18,15,16,21.20
2014,08,18,15,17,21.10
2014,08,18,15,18,21.10
2014,08,18,15,19,21.10
2014,08,18,15,20,21.10
2014,08,18,15,21,21.00
2014,08,18,15,22,21.00
2014,08,18,15,23,21.00
2014,08,18,15,24,21.00
2014,08,18,15,25,20.90
2014,08,18,15,26,20.90
2014,08,18,15,27,20.90
2014,08,18,15,28,20.90
2014,08,18,15,29,20.90
2014,08,18,15,30,20.90
2014,08,18,15,31,21.00
2014,08,18,15,32,21.00
2014,08,18,15,33,21.00
2014,08,18,15,34,21.10
2014,08,18,15,35,21.20
2014,08,18,15,36,21.30
2014,08,18,15,37,21.40
2014,08,18,15,38,21.60
2014,08,18,15,39,21.60
2014,08,18,15,40,21.70
2014,08,18,15,41,21.90
2014,08,18,15,42,21.90
2014,08,18,15,43,21.80
2014,08,18,15,44,21.80
2014,08,18,15,45,21.80
2014,08,18,15,46,21.80
2014,08,18,15,47,21.80
2014,08,18,15,48,21.80
2014,08,18,15,49,21.90
2014,08,18,15,50,21.90
2014,08,18,15,51,22.00
2014,08,18,15,52,22.00
2014,08,18,15,53,22.00
2014,08,18,15,54,22.00
2014,08,18,15,55,22.00
2014,08,18,15,56,22.00
2014,08,18,15,57,22.00
2014,08,18,15,58,22.00
2014,08,18,15,59,21.90
2014,08,18,16,00,21.90
2014,08,18,16,01,21.80
2014,08,18,16,02,21.80
2014,08,18,16,03,21.70
2014,08,18,16,04,21.60
2014,08,18,16,05,21.50
2014,08,18,16,06,21.40
2014,08,18,16,07,21.30
2014,08,18,16,08,21.30
2014,08,18,16,09,21.20
2014,08,18,16,10,21.10
2014,08,18,16,11,21.10
2014,08,18,16,12,21.00
2014,08,18,16,13,21.00
2014,08,18,16,14,20.90
2014,08,18,16,15,20.90
2014,08,18,16,16,20.90
2014,08,18,16,17,20.90
2014,08,18,16,18,20.80
2014,08,18,16,19,20.80
2014,08,18,16,20,20.80
2014,08,18,16,21,20.90
2014,08,18,16,22,20.90
2014,08,18,16,23,20.90
2014,08,18,16,24,20.90
2014,08,18,16,25,21.00
2014,08,18,16,26,21.00
2014,08,18,16,27,21.10
2014,08,18,16,28,21.10
2014,08,18,16,29,21.10
2014,08,18,16,30,21.10
2014,08,18,16,31,21.10
2014,08,18,16,32,21.20
2014,08,18,16,33,21.20
2014,08,18,16,34,21.20
2014,08,18,16,35,21.20
2014,08,18,16,36,21.30
2014,08,18,16,37,21.30
2014,08,18,16,38,21.30
2014,08,18,16,39,21.30
2014,08,18,16,40,21.40
2014,08,18,16,41,21.40
2014,08,18,16,42,21.40
2014,08,18,16,43,21.40
2014,08,18,16,44,21.40
2014,08,18,16,45,21.40
2014,08,18,16,46,21.40
2014,08,18,16,47,21.50
2014,08,18,16,48,21.60
2014,08,18,16,49,21.60
2014,08,18,16,50,21.60
2014,08,18,16,51,21.60
2014,08,18,16,52,21.60
2014,08,18,16,53,21.60
2014,08,18,16,54,21.60
2014,08,18,16,55,21.70
2014,08,18,16,56,21.70
2014,08,18,16,57,21.70
2014,08,18,16,58,21.70
2014,08,18,16,59,21.70
2014,08,18,17,00,21.70
2014,08,18,17,01,21.70
2014,08,18,17,02,21.70
2014,08,18,17,03,21.70
2014,08,18,17,04,21.70
2014,08,18,17,05,21.70
2014,08,18,17,06,21.80
2014,08,18,17,07,21.80
2014,08,18,17,08,21.80
2014,08,18,17,09,21.80
2014,08,18,17,10,21.80
2014,08,18,17,11,21.80
2014,08,18,17,12,21.80
2014,08,18,17,13,21.80
2014,08,18,17,14,21.80
2014,08,18,17,15,21.80
2014,08,18,17,16,21.90
2014,08,18,17,17,21.90
2014,08,18,17,18,22.00
2014,08,18,17,19,22.00